Weather History for Meriden, CT

Change the Weather History Date:

Friday, March 7, 2014

  Actual Average (KHVN) Record (KHVN)
Temperature  
Mean Temperature 22 °F -  
Max Temperature 35 °F 41 °F 69 °F (1987)
Min Temperature 10 °F 27 °F 3 °F (2003)
Degree Days  
Heating Degree Days 42    
Moisture  
Dew Point 13 °F    
Average Humidity 60    
Maximum Humidity 80    
Minimum Humidity 52    
Precipitation  
Precipitation 0.00 in - - ()
Sea Level Pressure  
Sea Level Pressure 30.24 in    
Wind  
Wind Speed 3 mph (North)    
Max Wind Speed 9 mph    
Max Gust Speed -    
Visibility 10 miles    
Events      
Averages and records for this station are not official NWS values.
T = Trace of Precipitation, MM = Missing Value Source: NWS Daily Summary

Daily Weather History Graph

Daily Weather History Graph

Search for Another Location

Airport:

Trip Planner

Search our weather history database for the weather conditions in past years. The results will help you decide how hot, cold, wet, or windy it might be!

Date:

Astronomy

Mar. 07, 2014 Rise Set
Actual Time 6:16 AM EST 5:48 PM EST
Civil Twilight 5:48 AM EST 6:16 PM EST
Nautical Twilight 5:16 AM EST 6:48 PM EST
Astronomical Twilight 4:44 AM EST 7:20 PM EST
Moon 10:02 AM EST (3/7) No Moon Set
Length of Visible Light 12h 27m
Length of Day
11h 32m
Waxing Crescent, 42% of the Moon is Illuminated
Mar 7
Waxing Crescent
Mar 8
First Quarter
Mar 16
Full
Mar 23
Last Quarter
Mar 30
New

Hourly Weather History & Observations

Time (EST) Temp. Windchill Dew Point Humidity Pressure Visibility Wind Dir Wind Speed Gust Speed Precip Events Conditions
12:53 AM 12.9 °F - 6.1 °F 74% 30.52 in 10.0 mi Calm Calm - N/A   Clear
1:53 AM 10.0 °F - 5.0 °F 80% 30.49 in 10.0 mi Calm Calm - N/A   Clear
2:53 AM 10.0 °F - 3.9 °F 76% 30.45 in 10.0 mi Calm Calm - N/A   Clear
3:16 AM 10.0 °F - 3.9 °F 76% 30.45 in 10.0 mi Calm Calm - N/A   Mostly Cloudy
3:53 AM 10.9 °F - 5.0 °F 77% 30.45 in 10.0 mi Calm Calm - N/A   Mostly Cloudy
4:53 AM 12.9 °F - 5.0 °F 71% 30.45 in 10.0 mi Calm Calm - N/A   Overcast
5:53 AM 14.0 °F 8.2 °F 5.0 °F 67% 30.42 in 10.0 mi NW 3.5 mph - N/A   Overcast
6:53 AM 15.1 °F 9.4 °F 5.0 °F 64% 30.43 in 10.0 mi NW 3.5 mph - N/A   Overcast
7:53 AM 18.0 °F 8.7 °F 5.0 °F 57% 30.39 in 10.0 mi North 6.9 mph - N/A   Overcast
8:53 AM 19.0 °F 8.2 °F 6.1 °F 57% 30.38 in 10.0 mi NNE 9.2 mph - N/A   Overcast
9:53 AM 23.0 °F 15.8 °F 9.0 °F 55% 30.36 in 10.0 mi NNE 5.8 mph - N/A   Overcast
10:53 AM 26.1 °F 21.9 °F 12.0 °F 55% 30.34 in 10.0 mi Variable 3.5 mph - N/A   Overcast
11:21 AM 28.0 °F 21.7 °F 14.0 °F 56% 30.32 in 10.0 mi NNE 5.8 mph - N/A   Partly Cloudy
11:53 AM 28.9 °F 22.8 °F 17.1 °F 61% 30.30 in 10.0 mi North 5.8 mph - N/A   Clear
12:53 PM 30.9 °F 25.2 °F 17.1 °F 57% 30.25 in 10.0 mi North 5.8 mph - N/A   Clear
1:44 PM 32.0 °F 25.6 °F 18.0 °F 56% 30.19 in 10.0 mi NNE 6.9 mph - N/A   Mostly Cloudy
1:53 PM 32.0 °F 26.4 °F 18.0 °F 56% 30.20 in 10.0 mi North 5.8 mph - N/A   Overcast
2:53 PM 33.1 °F 28.7 °F 18.0 °F 54% 30.16 in 10.0 mi North 4.6 mph - N/A   Overcast
3:33 PM 34.0 °F 27.2 °F 18.0 °F 52% 30.12 in 10.0 mi North 8.1 mph - N/A   Mostly Cloudy
3:53 PM 34.0 °F 28.8 °F 19.0 °F 54% 30.13 in 10.0 mi NNE 5.8 mph - N/A   Scattered Clouds
4:53 PM 35.1 °F 31.0 °F 19.0 °F 52% 30.11 in 10.0 mi North 4.6 mph - N/A   Overcast
5:53 PM 35.1 °F 30.1 °F 19.0 °F 52% 30.09 in 10.0 mi North 5.8 mph - N/A   Overcast
6:53 PM 35.1 °F 30.1 °F 19.0 °F 52% 30.07 in 10.0 mi North 5.8 mph - N/A   Overcast
7:53 PM 34.0 °F 28.8 °F 19.0 °F 54% 30.05 in 10.0 mi North 5.8 mph - N/A   Overcast
8:53 PM 34.0 °F 29.8 °F 19.0 °F 54% 30.04 in 10.0 mi NNE 4.6 mph - N/A   Overcast
9:53 PM 34.0 °F 29.8 °F 19.0 °F 54% 30.01 in 10.0 mi NNW 4.6 mph - N/A   Overcast
10:53 PM 33.1 °F - 19.0 °F 56% 29.97 in 10.0 mi Calm Calm - N/A   Overcast
11:48 PM 32.0 °F 28.7 °F 19.4 °F 60% 29.94 in 10.0 mi NNW 3.5 mph - N/A   Mostly Cloudy
11:53 PM 32.0 °F 28.7 °F 19.0 °F 59% 29.94 in 10.0 mi North 3.5 mph - N/A   Mostly Cloudy